• In Germany
  • List of Countries
  • For 7 days
  • Water Temperature
  • Satellite Maps
  • Weather Map
  • Weather Widgets
  • user-avatar
    Login

    Hourly Weather Lankaran

    Today, 25 May, Thursday

    Time Temperature Precipitation Wind Pressure Humidity
    00:00 +10°C° 0 mm 1 mps 633 mmHg 83%
    01:00 +10°C° 0 mm 1 mps 633 mmHg 83%
    02:00 +9°C° 0 mm 1 mps 633 mmHg 84%
    03:00 +9°C° 0 mm 1 mps 633 mmHg 84%
    04:00 +10°C° 0 mm 1 mps 633 mmHg 81%
    05:00 +11°C° 0 mm 1 mps 633 mmHg 78%
    06:00 +11°C° 0 mm 1 mps 634 mmHg 75%
    07:00 +13°C° 0 mm 2 mps 634 mmHg 67%
    08:00 +15°C° 0 mm 2 mps 635 mmHg 59%
    09:00 +16°C° 0 mm 2 mps 635 mmHg 52%
    10:00 +17°C° 0 mm 3 mps 635 mmHg 50%
    11:00 +18°C° 0 mm 3 mps 635 mmHg 48%
    12:00 +18°C° 0 mm 3 mps 635 mmHg 46%
    13:00 +19°C° 0 mm 3 mps 635 mmHg 47%
    14:00 +19°C° 0 mm 4 mps 635 mmHg 48%
    15:00 +19°C° 0 mm 4 mps 635 mmHg 50%
    16:00 +18°C° 0 mm 4 mps 635 mmHg 56%
    17:00 +17°C° 0 mm 3 mps 634 mmHg 63%
    18:00 +16°C° 0 mm 3 mps 634 mmHg 70%
    19:00 +13°C° 0 mm 3 mps 634 mmHg 75%
    20:00 +13°C° 0 mm 2 mps 634 mmHg 80%
    21:00 +12°C° 0 mm 2 mps 634 mmHg 86%
    22:00 +10°C° 0 mm 2 mps 634 mmHg 87%
    23:00 +10°C° 0 mm 1 mps 634 mmHg 88%

    Tomorrow, 26 May, Friday

    Time Temperature Precipitation Wind Pressure Humidity
    00:00 +9°C° 0 mm 1 mps 634 mmHg 89%
    01:00 +9°C° 0 mm 1 mps 633 mmHg 89%
    02:00 +9°C° 0 mm 1 mps 633 mmHg 88%
    03:00 +8°C° 0 mm 1 mps 633 mmHg 88%
    04:00 +10°C° 0 mm 1 mps 633 mmHg 85%
    05:00 +11°C° 0 mm 1 mps 634 mmHg 82%
    06:00 +12°C° 0 mm 1 mps 635 mmHg 78%
    07:00 +14°C° 0 mm 1 mps 635 mmHg 73%
    08:00 +15°C° 0 mm 2 mps 635 mmHg 67%
    09:00 +17°C° 0 mm 2 mps 636 mmHg 61%
    10:00 +17°C° 0 mm 2 mps 635 mmHg 58%
    11:00 +18°C° 0 mm 3 mps 635 mmHg 55%
    12:00 +19°C° 0 mm 3 mps 635 mmHg 52%
    13:00 +20°C° 0 mm 3 mps 635 mmHg 52%
    14:00 +20°C° 0 mm 3 mps 634 mmHg 52%
    15:00 +20°C° 0 mm 3 mps 634 mmHg 51%
    16:00 +19°C° 0 mm 3 mps 634 mmHg 57%
    17:00 +18°C° 0 mm 3 mps 633 mmHg 63%
    18:00 +17°C° 0 mm 2 mps 633 mmHg 69%
    19:00 +16°C° 0 mm 2 mps 633 mmHg 74%
    20:00 +14°C° 0 mm 2 mps 633 mmHg 78%
    21:00 +13°C° 0 mm 1 mps 633 mmHg 83%
    22:00 +12°C° 0 mm 1 mps 632 mmHg 83%
    23:00 +11°C° 0 mm 1 mps 632 mmHg 83%

    Day after tomorrow, 27 May, Saturday

    Time Temperature Precipitation Wind Pressure Humidity
    00:00 +10°C° 0 mm 1 mps 632 mmHg 82%
    01:00 +10°C° 0 mm 1 mps 631 mmHg 81%
    02:00 +10°C° 0 mm 1 mps 631 mmHg 80%
    03:00 +9°C° 0 mm 1 mps 631 mmHg 78%
    04:00 +11°C° 0 mm 1 mps 632 mmHg 75%
    05:00 +13°C° 0 mm 1 mps 632 mmHg 72%
    06:00 +14°C° 0 mm 1 mps 633 mmHg 68%
    07:00 +16°C° 0 mm 2 mps 633 mmHg 61%
    08:00 +18°C° 0 mm 2 mps 634 mmHg 54%
    09:00 +20°C° 0 mm 3 mps 634 mmHg 47%
    10:00 +21°C° 0 mm 3 mps 634 mmHg 44%
    11:00 +22°C° 0 mm 4 mps 634 mmHg 41%
    12:00 +23°C° 0 mm 4 mps 633 mmHg 38%
    13:00 +23°C° 0 mm 4 mps 633 mmHg 39%
    14:00 +23°C° 0 mm 4 mps 632 mmHg 41%
    15:00 +23°C° 0 mm 4 mps 632 mmHg 42%
    16:00 +22°C° 0 mm 4 mps 631 mmHg 48%
    17:00 +20°C° 0 mm 3 mps 631 mmHg 53%
    18:00 +19°C° 0 mm 3 mps 631 mmHg 59%
    19:00 +17°C° 0 mm 3 mps 630 mmHg 61%
    20:00 +16°C° 0 mm 2 mps 630 mmHg 63%
    21:00 +14°C° 0 mm 2 mps 630 mmHg 64%
    22:00 +13°C° 0 mm 2 mps 630 mmHg 65%
    23:00 +13°C° 0 mm 2 mps 630 mmHg 65%

    28 May, Sunday

    Time Temperature Precipitation Wind Pressure Humidity
    00:00 +12°C° 0 mm 3 mps 630 mmHg 66%
    01:00 +11°C° 0 mm 3 mps 630 mmHg 66%
    02:00 +12°C° 0 mm 2 mps 630 mmHg 66%
    03:00 +10°C° 0 mm 2 mps 630 mmHg 66%
    04:00 +13°C° 0 mm 2 mps 631 mmHg 62%
    05:00 +14°C° 0 mm 2 mps 631 mmHg 59%
    06:00 +16°C° 0 mm 2 mps 632 mmHg 56%
    07:00 +18°C° 0 mm 2 mps 633 mmHg 48%
    08:00 +20°C° 0 mm 2 mps 633 mmHg 39%
    09:00 +22°C° 0 mm 3 mps 634 mmHg 31%
    10:00 +24°C° 0 mm 3 mps 634 mmHg 29%
    11:00 +25°C° 0 mm 3 mps 634 mmHg 28%
    12:00 +26°C° 0 mm 4 mps 633 mmHg 26%
    13:00 +26°C° 0 mm 4 mps 633 mmHg 26%
    14:00 +26°C° 0 mm 4 mps 633 mmHg 26%
    15:00 +26°C° 0 mm 4 mps 633 mmHg 25%
    16:00 +25°C° 0 mm 4 mps 632 mmHg 31%
    17:00 +22°C° 0 mm 3 mps 632 mmHg 38%
    18:00 +21°C° 0 mm 3 mps 632 mmHg 44%
    19:00 +19°C° 0 mm 3 mps 632 mmHg 47%
    20:00 +16°C° 0 mm 2 mps 632 mmHg 51%
    21:00 +14°C° 0 mm 2 mps 632 mmHg 54%
    22:00 +13°C° 0 mm 2 mps 632 mmHg 60%
    23:00 +12°C° 0 mm 2 mps 632 mmHg 66%

    29 May, Monday

    Time Temperature Precipitation Wind Pressure Humidity
    00:00 +12°C° 0 mm 2 mps 633 mmHg 72%
    01:00 +12°C° 0 mm 2 mps 633 mmHg 76%
    02:00 +10°C° 0 mm 2 mps 634 mmHg 80%
    03:00 +10°C° 0 mm 2 mps 634 mmHg 83%
    04:00 +10°C° 0 mm 2 mps 635 mmHg 83%
    05:00 +11°C° 0 mm 3 mps 636 mmHg 82%
    06:00 +11°C° 0 mm 3 mps 636 mmHg 82%
    07:00 +12°C° 0.1 mm 3 mps 637 mmHg 79%
    08:00 +13°C° 0.1 mm 4 mps 637 mmHg 76%
    09:00 +14°C° 0.1 mm 4 mps 638 mmHg 73%
    10:00 +14°C° 0.1 mm 4 mps 637 mmHg 71%
    11:00 +15°C° 0.1 mm 4 mps 637 mmHg 69%
    12:00 +15°C° 0.1 mm 4 mps 637 mmHg 68%
    13:00 +15°C° 0.1 mm 4 mps 637 mmHg 70%
    14:00 +15°C° 0.1 mm 4 mps 637 mmHg 71%
    15:00 +15°C° 0.1 mm 5 mps 636 mmHg 73%
    16:00 +14°C° 0 mm 4 mps 636 mmHg 76%
    17:00 +13°C° 0 mm 4 mps 636 mmHg 79%
    18:00 +12°C° 0 mm 4 mps 636 mmHg 83%
    19:00 +12°C° 0.1 mm 3 mps 636 mmHg 85%
    20:00 +11°C° 0.1 mm 3 mps 637 mmHg 87%
    21:00 +10°C° 0.1 mm 2 mps 637 mmHg 89%
    22:00 +10°C° 0.1 mm 2 mps 637 mmHg 89%
    23:00 +10°C° 0.1 mm 2 mps 637 mmHg 90%

    30 May, Tuesday

    Time Temperature Precipitation Wind Pressure Humidity
    00:00 +10°C° 0.1 mm 2 mps 636 mmHg 90%
    01:00 +9°C° 0 mm 2 mps 636 mmHg 91%
    02:00 +9°C° 0 mm 2 mps 636 mmHg 92%
    03:00 +9°C° 0 mm 2 mps 636 mmHg 92%
    04:00 +9°C° 0 mm 2 mps 636 mmHg 89%
    05:00 +10°C° 0 mm 2 mps 636 mmHg 87%
    06:00 +10°C° 0 mm 2 mps 636 mmHg 84%
    07:00 +13°C° 0 mm 2 mps 636 mmHg 78%
    08:00 +15°C° 0 mm 2 mps 636 mmHg 71%
    09:00 +16°C° 0 mm 3 mps 636 mmHg 65%
    10:00 +18°C° 0 mm 3 mps 635 mmHg 60%
    11:00 +19°C° 0 mm 4 mps 635 mmHg 56%
    12:00 +21°C° 0 mm 4 mps 635 mmHg 51%
    13:00 +21°C° 0 mm 4 mps 634 mmHg 50%
    14:00 +21°C° 0 mm 4 mps 634 mmHg 50%
    15:00 +22°C° 0 mm 4 mps 634 mmHg 49%
    16:00 +21°C° 0 mm 3 mps 633 mmHg 55%
    17:00 +20°C° 0 mm 3 mps 633 mmHg 61%
    18:00 +18°C° 0 mm 2 mps 633 mmHg 66%
    19:00 +17°C° 0 mm 2 mps 633 mmHg 70%
    20:00 +15°C° 0 mm 1 mps 632 mmHg 75%
    21:00 +13°C° 0 mm 1 mps 632 mmHg 79%
    22:00 +13°C° 0 mm 1 mps 632 mmHg 76%
    23:00 +13°C° 0 mm 1 mps 632 mmHg 72%
    Show more